Malmstrom AFB, MT

2:35 PM MDT on March 29, 2017 (GMT -0600)
Malmstrom AFB

Weather History for KGFA - July, 2013

Change the Weather History Date:

Thursday, July 25, 2013

  Actual Average (KGTF) Record (KGTF)
Temperature  
Mean Temperature 72 °F -  
Max Temperature 84 °F 83 °F 107 °F (1933)
Min Temperature 59 °F 54 °F 37 °F (1918)
Cooling Degree Days 6    
Growing Degree Days 22 (Base 50)    
Moisture  
Dew Point 53 °F    
Average Humidity 58    
Maximum Humidity 83    
Minimum Humidity 31    
Precipitation  
Precipitation 0.05 in - - ()
Sea Level Pressure  
Sea Level Pressure 30.16 in    
Wind  
Wind Speed 7 mph (NNE)    
Max Wind Speed 22 mph    
Max Gust Speed 30 mph    
Visibility 10 miles    
Events      
Averages and records for this station are not official NWS values.
T = Trace of Precipitation, MM = Missing Value Source: NWS Daily Summary

Daily Weather History Graph

Daily Weather History Graph

Search for Another Location

Airport or City:

Trip Planner

Search our weather history database for the weather conditions in past years. The results will help you decide how hot, cold, wet, or windy it might be!

Date:

Astronomy

Jul. 25, 2013 Rise Set
Actual Time 5:54 AM MDT 9:07 PM MDT
Civil Twilight 5:17 AM MDT 9:44 PM MDT
Nautical Twilight 4:28 AM MDT 10:32 PM MDT
Astronomical Twilight 3:27 AM MDT 11:32 PM MDT
Moon 10:28 PM MDT (7/25) 9:47 AM MDT (7/25)
Length of Visible Light 16h 27m
Length of Day
15h 13m
Waning Gibbous, 88% of the Moon is Illuminated
Jul 25
Waning Gibbous
Jul 29
Last Quarter
Aug 6
New
Aug 14
First Quarter
Aug 20
Full

Hourly Weather History & Observations

Time (MDT) Temp. Dew Point Humidity Pressure Visibility Wind Dir Wind Speed Gust Speed Precip Events Conditions
12:56 AM 63.0 °F 55.9 °F 78% 30.12 in 10.0 mi NNE 5.8 mph - N/A   Clear
1:56 AM 64.0 °F 55.9 °F 75% 30.14 in 10.0 mi NNW 5.8 mph - N/A   Clear
2:56 AM 63.0 °F 54.0 °F 72% 30.14 in 10.0 mi WNW 5.8 mph - N/A   Clear
3:56 AM 61.0 °F 54.0 °F 78% 30.16 in 10.0 mi NNW 4.6 mph - N/A   Clear
4:56 AM 59.0 °F 54.0 °F 83% 30.16 in 10.0 mi WNW 3.5 mph - N/A   Clear
5:56 AM 59.0 °F 52.0 °F 78% 30.18 in 10.0 mi NW 4.6 mph - N/A   Clear
6:56 AM 59.0 °F 53.1 °F 81% 30.18 in 10.0 mi Calm Calm - N/A   Clear
7:56 AM 60.1 °F 53.1 °F 78% 30.21 in 10.0 mi North 3.5 mph - N/A   Clear
8:56 AM 62.1 °F 54.0 °F 75% 30.23 in 10.0 mi North 5.8 mph - 0.05 in   Clear
9:56 AM 66.9 °F 55.0 °F 66% 30.23 in 10.0 mi North 4.6 mph - N/A   Clear
10:56 AM 71.1 °F 55.0 °F 57% 30.22 in 10.0 mi NNE 6.9 mph - N/A   Clear
11:56 AM 73.9 °F 55.0 °F 52% 30.20 in 10.0 mi Variable 6.9 mph 20.7 mph N/A   Clear
12:56 PM 77.0 °F 53.1 °F 43% 30.18 in 10.0 mi ENE 10.4 mph - N/A   Clear
1:56 PM 80.1 °F 51.1 °F 36% 30.15 in 10.0 mi Variable 6.9 mph 20.7 mph N/A   Clear
2:56 PM 82.0 °F 52.0 °F 35% 30.13 in 10.0 mi NNE 10.4 mph - N/A   Clear
3:56 PM 84.0 °F 51.1 °F 32% 30.12 in 10.0 mi North 12.7 mph - N/A   Clear
4:56 PM 84.9 °F 51.1 °F 31% 30.11 in 10.0 mi NE 11.5 mph 18.4 mph N/A   Clear
5:56 PM 84.0 °F 50.0 °F 31% 30.10 in 10.0 mi NE 15.0 mph 19.6 mph N/A   Clear
6:56 PM 82.0 °F 52.0 °F 35% 30.10 in 10.0 mi NE 18.4 mph - N/A   Clear
7:56 PM 78.1 °F 53.1 °F 42% 30.12 in 10.0 mi NE 18.4 mph 25.3 mph N/A   Clear
8:56 PM 73.0 °F 54.0 °F 51% 30.13 in 10.0 mi NE 8.1 mph - N/A   Clear
9:56 PM 70.0 °F 54.0 °F 57% 30.15 in 10.0 mi Calm Calm - N/A   Clear
11:56 PM 66.9 °F 51.1 °F 57% 30.13 in 10.0 mi ESE 21.9 mph 29.9 mph N/A   Clear